ATLAS 5 CENTAUR DEB, 44668

Orbit data source: Space-Track

ATLAS 5 CENTAUR DEB, 44668 is space debris in HEO originally from a launch on Wed, 17 Oct 2018 UTC launched from the Air Force Eastern Test Range (AFETR). Debris objects in space refer to the collection of defunct objects orbiting the Earth. Examples of debris include non-operational satellites, rocket bodies, and fragments generated from explosions, collisions, or faulty payload assembly.

Loading next visibility...
Identifier
44668, 2018-079AE
Orbit
HEO
Country
Flag of USUS
Related business
Flag of USUnited Launch Alliance/Lockheed Martin (US)
Manufacturer
ULA Decatur
Mission
Spacecraft
Bus & Motor
Unknown
Mass
Unknown
Launch date (UTC)
2018-10-17 (7 years ago)
Launch vehicle
Unknown
Launch site
Air Force Eastern Test Range (AFETR)
Object type
Payload
Rocket body
Debris
Shape & HBR
Unknown shape, 1.1 m
Radar Cross Section
RCS unknown

Expand to show TLE details & history
Last TLE update: 2 days ago

TLE from 2 days ago
0 ATLAS 5 CENTAUR DEB
1 44668U 18079AE  26033.19888233 -.00000140  00000-0  00000-0 0  9995
2 44668  13.3742  11.8862 4559241   5.8575 357.9211  1.97458285 48162
Epoch: 2026-02-02T04:46Z
TLE epoch observation values (Epoch: 2026-02-02T04:46:23.433Z)
Latitude
0.00003°
Longitude
167.91721°
Altitude
8,266.567 km
Speed
6.292 km/s
True Right ascension
00h 47m 38s
True Declination
0° 00' 00"
Sunlit
Object was in daylight at epoch
Visualization orbit readout
Latitude
Unknown
Longitude
Unknown
Altitude
Unknown
Speed
Unknown
Apparent Right ascension
Unknown
Apparent Declination
Unknown
Sunlit
N/A
Visualization observer readout
Local Sidereal Time
01:44:56
Azimuth
Unknown
Elevation
Unknown
Doppler factor
Unknown
Orbital elements
Apogee altitude
32,699.226 km
Perigee altitude
8,224.995 km
Semi-major axis
26,840.247 km
Eccentricity
0.45592
Inclination
13.3742°
RAAN
11.8862°
Arg. of periapsis
5.8575°
True anomaly
353.75726°
Mean anomaly
357.9211°
Eccentric anomaly
356.18139°
Mean motion
0.49359 °/min
Orbital period
729.36 mins
BSTAR
0
Loading maneuver chart data...
Computing Atmospheric mass density...

Documentation

Showing up to 5 results
|